Location: Azalea Creek
(37.1280°N, 119.2623°W)
Time: 06:19:35
(UTC+00:00)

CZ-2C R/B - Pass Details

Date: 17 February 2020
Orbit: 703 x 909 km, 98.1° (Epoch: 30 March)

Event Time Altitude Azimuth Distance (km) Brightness Sun altitude
Exits shadow 03:19:51 39° 107° (ESE) 1,341 3.7 -21.0°
Maximum altitude 03:21:13 45° 71° (ENE) 1,215 3.6 -21.2°
Drops below altitude 10° 03:26:44 10° 1° (N) 2,594 5.7 -22.3°
Sets 03:29:14 0° 355° (N) 3,528 6.5 -22.8°
